Flag for Germany Weather past 2 weeks in Grevenbroich, North Rhine-Westphalia, Germany

Now
64 °F

Clear.


Feels Like: 64 °F
Forecast: 57 / 74 °F
Wind: 6 mph from Northwest

Location: Duesseldorf

Current Time: Jul 29, 2014 at 3:44:15 AM

Latest Report: Jul 29, 2014 at 3:20 AM


Visibility: 10 mi

Pressure: 29.86 "Hg

Humidity: 94%

Dew point: 63 °F

Location of GrevenbroichLocation

Historic Weather in Grevenbroich — Graph

°F

Grevenbroich temperature yesterday

Maximum temperature yesterday: 82 °F (at 1:20 PM)
Minimum temperature yesterday: 64 °F (at 1:20 AM)
Average temperature yesterday: 71 °F

Past Weeks' High & Low Weather Summary

 TemperatureHumidityPressure
High93 °F (Jul 19, 3:50 PM)100% (Jul 16, 6:20 AM)30.18 "Hg (Jul 16, 6:20 AM)
Low55 °F (Jul 15, 1:50 AM)23% (Jul 19, 4:50 PM)29.77 "Hg (Jul 14, 2:20 AM)
Average71 °F70%29.98 "Hg
* Reported Jul 14 2:20 AM — Jul 29 2:20 AM, Grevenbroich, Weather by CustomWeather, © 2014

Note: Actual official high and low records may vary slightly from our data, if they occured in-between our weather recording intervals... More about our weather records

Advertising

Grevenbroich weather history for previous 24 hours

 ConditionsComfort  
Time TempWeatherWind HumidityBarometerVisibility
2:20 AM
Jul 29
64 °FClear.5 mph94%29.86 "Hg10 mi
1:50 AM66 °FClear.6 mph88%29.83 "Hg10 mi
1:20 AM66 °FClear.7 mph88%29.86 "Hg10 mi
12:50 AM66 °FClear.6 mph94%29.86 "Hg10 mi
12:20 AM66 °FLight rain. Clear.8 mph94%29.86 "HgN/A
10:50 PM
Jul 28
66 °FPassing clouds.5 mph94%29.86 "HgN/A
10:20 PM66 °FPartly sunny.5 mph94%29.86 "HgN/A
9:50 PM68 °FSunny.6 mph88%29.89 "Hg10 mi
9:20 PM68 °FSunny.6 mph88%29.86 "Hg10 mi
8:50 PM70 °FSunny.5 mph83%29.86 "Hg10 mi
8:20 PM70 °FSunny.7 mph88%29.86 "Hg10 mi
7:50 PM70 °FBroken clouds.3 mph88%29.86 "HgN/A
7:20 PM70 °FScattered clouds.6 mph94%29.86 "HgN/A
6:50 PM68 °FScattered showers. Scattered clouds.6 mph88%29.83 "HgN/A
6:20 PM70 °FThunderstorms. Partly sunny.5 mph88%29.83 "Hg6 mi
5:50 PM75 °FThundershowers. Broken clouds.6 mph69%29.83 "Hg6 mi
5:20 PM75 °FBroken clouds.8 mph69%29.83 "HgN/A
4:50 PM77 °FScattered showers. Broken clouds.10 mph69%29.83 "HgN/A
4:20 PM79 °FBroken clouds.9 mph61%29.83 "HgN/A
3:50 PM75 °FSprinkles. Broken clouds.9 mph69%29.83 "HgN/A
3:20 PM75 °FBroken clouds.16 mph57%29.83 "HgN/A
2:50 PM77 °FScattered clouds.7 mph65%29.83 "HgN/A
2:20 PM75 °FBroken clouds.15 mph61%29.83 "HgN/A
1:50 PM81 °FBroken clouds.8 mph48%29.83 "HgN/A
1:20 PM82 °FScattered clouds.8 mph48%29.83 "HgN/A
12:50 PM81 °FPartly sunny.9 mph51%29.83 "HgN/A
12:20 PM79 °FPassing clouds.6 mph54%29.83 "HgN/A
11:50 AM79 °FPassing clouds.5 mph54%29.86 "HgN/A
11:20 AM77 °FPassing clouds.7 mph57%29.86 "HgN/A
10:50 AM77 °FPassing clouds.8 mph61%29.86 "HgN/A
10:20 AM75 °FPassing clouds.7 mph65%29.86 "HgN/A
9:50 AM73 °FSunny.6 mph69%29.86 "Hg10 mi
9:20 AM72 °FSunny.6 mph73%29.86 "Hg10 mi
8:50 AM72 °FSunny.6 mph73%29.89 "Hg10 mi
8:20 AM70 °FSunny.6 mph78%29.89 "Hg10 mi
7:50 AM68 °FSunny.3 mph83%29.89 "Hg10 mi
7:20 AM66 °FSunny.2 mph88%29.89 "Hg10 mi
6:50 AM66 °FSunny.3 mph88%29.89 "Hg10 mi
6:20 AM66 °FClear.2 mph83%29.89 "Hg10 mi
5:50 AM64 °FClear.3 mph88%29.89 "Hg10 mi
5:20 AM64 °FClear.5 mph88%29.89 "Hg10 mi
4:20 AM64 °FPassing clouds.5 mph88%29.92 "HgN/A
3:50 AM66 °FPassing clouds.2 mph83%29.92 "HgN/A
3:20 AM66 °FPassing clouds.1 mph83%29.92 "HgN/A
Weather by CustomWeather, © 2014

See weather overviewHow to use our weather pages